"Pseudo-MPEC" for P21JI5Z

Created 2023 Oct 6 19:22:27 UT using Find_Orb

Click here for an explanation of pseudo-MPECs

 
 Astrometry: 
     P21JI5Z* C2023 09 16S-Astrometryg)-,K4redacted;a$]@gLEYWclick_=Vot;na;A*F52
     P21JI5Z  C2023 09 16V]$xgeMjh4nLT5xhereSnUlefa:'/!vP_mforaCK_d697'KtSY0+F52
     P21JI5Z  C2023 09 16fX;XDexplanation[s8)m8YR_tu0Y_FrvT!U-ZemFwbXuCR3_[QnF52

Station data:
(F52) Pan-STARRS 2, Haleakala  (N20.707382 W156.255910)  US/Hawaii.
   Observers J. Bulger, T. Dukes, T. Lowe, A. Schultz, M. Willman. Measurers
   K. Chambers, S. Chastel, T. de Boer, L. Denneau, J. Fairlamb, H.
   Flewelling, M. Huber, C.-C. Lin, E. Magnier, Y. Ramanjooloo, R. Wainscoat,
   R. Weryk. 1.8-m Ritchey-Chrétien + CCD.

Orbital elements:  P21JI5Z
   Perihelion 2023 Sep 12.81447 +/- 58.7 TT = 19:32:50 (JD 2460200.31447)
Epoch 2023 Sep 16.0 TT = JDT 2460203.5   Earth MOID: 0.6740      AutoNEOCP
M   0.79424672 +/- 26               (J2000 ecliptic)
n   0.24932975 +/- 0.275            Peri.  267.00285 +/- 100
a   2.50007654 +/- 1.84             Node    73.53930 +/- 45
e   0.3513692 +/- 0.253             Incl.   12.68053 +/- 8
P   3.95                   H 20.35  G  0.15   U 11.9  SR
q 1.62162648 +/- 0.643    Q 3.37852660 +/- 138
From 3 observations 2023 Sept. 16 (38.5 min); mean residual 0".04
Residuals in arcseconds: 
230916 F52  .04+  .02+    230916 F52  .07-  .03-    230916 F52  .02+  .01+    

Ephemerides (geocentric):
Date (UTC) HH   RA             Dec           delta  r     elong  mag " sig PA
---- --------  ------------   ------------  ------ ------ -----  --- --------
2023 10 06 19  22 41 46.522   -36 24 56.68  .80619 1.6329 129.1 22.2  28d 127
2023 10 06 20  22 41 47.391   -36 24 14.56  .80643 1.6330 129.1 22.2  28d 127
2023 10 06 21  22 41 48.264   -36 23 32.41  .80666 1.6330 129.1 22.2  28d 127
2023 10 06 22  22 41 49.140   -36 22 50.22  .80689 1.6330 129.0 22.2  28d 127
2023 10 06 23  22 41 50.020   -36 22 08.00  .80713 1.6331 129.0 22.2  28d 127
2023 10 07 00  22 41 50.903   -36 21 25.74  .80736 1.6331 129.0 22.2  28d 127
2023 10 07 01  22 41 51.790   -36 20 43.45  .80760 1.6331 129.0 22.2  28d 127
2023 10 07 02  22 41 52.680   -36 20 01.13  .80783 1.6332 129.0 22.2  28d 127
2023 10 07 03  22 41 53.574   -36 19 18.77  .80807 1.6332 128.9 22.2  28d 127
2023 10 07 04  22 41 54.471   -36 18 36.38  .80830 1.6333 128.9 22.2  28d 127
2023 10 07 05  22 41 55.372   -36 17 53.96  .80854 1.6333 128.9 22.2  28d 127
2023 10 07 06  22 41 56.277   -36 17 11.50  .80877 1.6333 128.9 22.2  29d 127
2023 10 07 07  22 41 57.185   -36 16 29.00  .80901 1.6334 128.8 22.2  29d 127
2023 10 07 08  22 41 58.097   -36 15 46.48  .80925 1.6334 128.8 22.2  29d 127
2023 10 07 09  22 41 59.012   -36 15 03.92  .80948 1.6335 128.8 22.2  29d 127
2023 10 07 10  22 41 59.930   -36 14 21.32  .80972 1.6335 128.8 22.2  29d 127
2023 10 07 11  22 42 00.853   -36 13 38.69  .80995 1.6335 128.7 22.2  29d 127
2023 10 07 12  22 42 01.779   -36 12 56.03  .81019 1.6336 128.7 22.2  29d 127
2023 10 07 13  22 42 02.708   -36 12 13.34  .81043 1.6336 128.7 22.2  29d 127
2023 10 07 14  22 42 03.641   -36 11 30.61  .81066 1.6337 128.7 22.2  29d 127
2023 10 07 15  22 42 04.577   -36 10 47.85  .81090 1.6337 128.6 22.2  29d 127
2023 10 07 16  22 42 05.517   -36 10 05.05  .81114 1.6337 128.6 22.2  29d 127
2023 10 07 17  22 42 06.461   -36 09 22.22  .81138 1.6338 128.6 22.2  29d 127
2023 10 07 18  22 42 07.408   -36 08 39.36  .81162 1.6338 128.6 22.2  29d 126
2023 10 07 19  22 42 08.359   -36 07 56.47  .81185 1.6339 128.6 22.2  30d 126
2023 10 07 20  22 42 09.313   -36 07 13.54  .81209 1.6339 128.5 22.2  30d 126
2023 10 07 21  22 42 10.270   -36 06 30.58  .81233 1.6339 128.5 22.2  30d 126
2023 10 07 22  22 42 11.232   -36 05 47.59  .81257 1.6340 128.5 22.2  30d 126
2023 10 07 23  22 42 12.197   -36 05 04.56  .81281 1.6340 128.5 22.2  30d 126
2023 10 08 00  22 42 13.165   -36 04 21.50  .81305 1.6341 128.4 22.2  30d 126
2023 10 08 01  22 42 14.137   -36 03 38.41  .81329 1.6341 128.4 22.2  30d 126
2023 10 08 02  22 42 15.112   -36 02 55.28  .81352 1.6342 128.4 22.2  30d 126
2023 10 08 03  22 42 16.091   -36 02 12.12  .81376 1.6342 128.4 22.2  30d 126
2023 10 08 04  22 42 17.074   -36 01 28.93  .81400 1.6342 128.3 22.2  30d 126
2023 10 08 05  22 42 18.060   -36 00 45.71  .81424 1.6343 128.3 22.2  30d 126
2023 10 08 06  22 42 19.049   -36 00 02.45  .81448 1.6343 128.3 22.2  30d 126
2023 10 08 07  22 42 20.042   -35 59 19.17  .81472 1.6344 128.3 22.2  30d 125
2023 10 08 08  22 42 21.039   -35 58 35.84  .81497 1.6344 128.3 22.2  30d 125
2023 10 08 09  22 42 22.039   -35 57 52.49  .81521 1.6344 128.2 22.2  30d 125
2023 10 08 10  22 42 23.042   -35 57 09.11  .81545 1.6345 128.2 22.2  31d 125
2023 10 08 11  22 42 24.050   -35 56 25.69  .81569 1.6345 128.2 22.2  31d 125
2023 10 08 12  22 42 25.060   -35 55 42.24  .81593 1.6346 128.2 22.2  31d 125
2023 10 08 13  22 42 26.075   -35 54 58.75  .81617 1.6346 128.1 22.2  31d 125
2023 10 08 14  22 42 27.092   -35 54 15.24  .81641 1.6346 128.1 22.2  31d 125
2023 10 08 15  22 42 28.114   -35 53 31.69  .81665 1.6347 128.1 22.2  31d 125
2023 10 08 16  22 42 29.138   -35 52 48.11  .81690 1.6347 128.1 22.2  31d 125
2023 10 08 17  22 42 30.167   -35 52 04.50  .81714 1.6348 128.0 22.2  31d 125
2023 10 08 18  22 42 31.199   -35 51 20.86  .81738 1.6348 128.0 22.2  31d 125